LiveATC.Net - Listen to live air traffic control over the Internet!


ICAO: KCLL  IATA: CLL   Airport: Easterwood Field Airport
City: College Station   State/Province: Texas
Country: United States   Continent: North America
KCLL METAR Weather: KCLL 222253Z 14020G26KT 10SM CLR 32/23 A2979 RMK AO2 PK WND 15027/2226 SLP083 T03170228
KCLL Flight Activity (FlightAware)
KCLL Airport Info   (iFlightPlanner)
KCLL VFR Sectional Chart   (iFlightPlanner) 
KCLL IFR Low Chart   (iFlightPlanner) 

KCLL Gnd/Twr/App
Feed Status: DOWN
Last heard on: 2019-05-20 16:40:02 (2 days 7 hours 8 minutes ago)
KCLL Gnd/Twr/App Audio Archives
FacilityFrequency
Easterwood Ground128.700
Easterwood Tower118.500
Houston Approach (NW/below 8000)134.300

NOTICE

Unauthorized use prohibited. See LiveATC.net Terms of Service


Find LiveATC Audio Streams


Airport/ARTCC Code

Frequency Search
(e.g., 124.400, 128.75)
Site-wide search
 


Browse LiveATC Feeds
Top 50 LiveATC Feeds
LiveATC Feed Map
Bad Weather Areas

LiveATC FAQ
Offer LiveATC feed
Contact LiveATC.net
Press Inquiries

LiveATC on iPhone
LiveATC on Android

Windows Phone
Windows 8/10

LiveATC Mobile
(Mobile browser)

ATC Audio Archives
Interesting Recordings

LiveATC Forums


Home Page
About LiveATC.net
Make a Donation
Terms of Use
Privacy Policy

Canadian Air Freqs

AIRMETs/SIGMETs

FAA Airport Status
Nat'l Airspace Status
Arrival Demand Charts


Server Software By:
Icecast.org
Liquidsoap